Location: Clarion
(42.7316°N, 93.7330°W)
Time: 00:57:58
(UTC+00:00)

Cosmos 841 Rocket - Pass Details

Date: 22 April 2026
Orbit: 741 x 768 km, 74.0° (Epoch: 20 May)

Event Time Altitude Azimuth Distance (km) Brightness Sun altitude
Exits shadow 10:38:32 10° 236° (SW) 2,267 5.3 -8.3°
Reaches altitude 10° 10:38:33 10° 236° (WSW) 2,260 5.3 -8.3°
Maximum altitude 10:43:06 32° 299° (WNW) 1,287 4.4 -7.6°
Drops below altitude 10° 10:47:42 10° 2° (N) 2,288 6.3 -6.8°
Sets 10:50:21 0° 12° (NNE) 3,222 7.3 -6.3°
